Hourly Weather Alquezar

Today, 11 May, Tuesday

Time Temperature Precipitation Wind Pressure Humidity
00:00 +8°C° 0 mm 1 mps 686 mmHg 81%
01:00 +8°C° 0 mm 1 mps 686 mmHg 82%
02:00 +7°C° 0 mm 2 mps 686 mmHg 84%
03:00 +6°C° 0 mm 2 mps 686 mmHg 85%
04:00 +6°C° 0 mm 2 mps 686 mmHg 84%
05:00 +7°C° 0 mm 2 mps 687 mmHg 83%
06:00 +7°C° 0 mm 2 mps 687 mmHg 82%
07:00 +8°C° 0.1 mm 3 mps 688 mmHg 75%
08:00 +8°C° 0.1 mm 4 mps 688 mmHg 68%
09:00 +9°C° 0.1 mm 6 mps 688 mmHg 61%
10:00 +10°C° 0.1 mm 6 mps 689 mmHg 55%
11:00 +11°C° 0.1 mm 6 mps 689 mmHg 49%
12:00 +13°C° 0.1 mm 6 mps 689 mmHg 43%
13:00 +14°C° 0 mm 6 mps 689 mmHg 39%
14:00 +15°C° 0 mm 6 mps 690 mmHg 35%
15:00 +15°C° 0 mm 6 mps 690 mmHg 31%
16:00 +14°C° 0 mm 5 mps 690 mmHg 34%
17:00 +13°C° 0 mm 5 mps 690 mmHg 37%
18:00 +12°C° 0 mm 4 mps 690 mmHg 40%
19:00 +11°C° 0 mm 4 mps 691 mmHg 46%
20:00 +9°C° 0 mm 3 mps 691 mmHg 52%
21:00 +7°C° 0 mm 2 mps 692 mmHg 57%
22:00 +7°C° 0 mm 2 mps 692 mmHg 58%
23:00 +6°C° 0 mm 2 mps 692 mmHg 58%

Tomorrow, 12 May, Wednesday

Time Temperature Precipitation Wind Pressure Humidity
00:00 +6°C° 0 mm 2 mps 692 mmHg 58%
01:00 +7°C° 0 mm 1 mps 691 mmHg 57%
02:00 +7°C° 0 mm 1 mps 691 mmHg 56%
03:00 +7°C° 0 mm 1 mps 690 mmHg 55%
04:00 +8°C° 0 mm 1 mps 690 mmHg 55%
05:00 +9°C° 0 mm 1 mps 690 mmHg 54%
06:00 +8°C° 0 mm 0 mps 690 mmHg 54%
07:00 +10°C° 0.1 mm 1 mps 690 mmHg 57%
08:00 +10°C° 0.1 mm 1 mps 690 mmHg 60%
09:00 +10°C° 0.1 mm 1 mps 690 mmHg 64%
10:00 +10°C° 0 mm 2 mps 690 mmHg 63%
11:00 +12°C° 0 mm 2 mps 690 mmHg 61%
12:00 +12°C° 0 mm 3 mps 690 mmHg 60%
13:00 +13°C° 0 mm 4 mps 689 mmHg 54%
14:00 +14°C° 0 mm 5 mps 689 mmHg 47%
15:00 +16°C° 0 mm 6 mps 689 mmHg 41%
16:00 +15°C° 0 mm 5 mps 689 mmHg 44%
17:00 +14°C° 0 mm 5 mps 689 mmHg 48%
18:00 +13°C° 0 mm 5 mps 689 mmHg 52%
19:00 +11°C° 0 mm 4 mps 689 mmHg 59%
20:00 +10°C° 0 mm 4 mps 689 mmHg 66%
21:00 +8°C° 0 mm 3 mps 689 mmHg 73%
22:00 +7°C° 0 mm 3 mps 689 mmHg 74%
23:00 +7°C° 0 mm 3 mps 689 mmHg 76%

Day after tomorrow, 13 May, Thursday

Time Temperature Precipitation Wind Pressure Humidity
00:00 +5°C° 0 mm 3 mps 689 mmHg 77%
01:00 +5°C° 0 mm 3 mps 689 mmHg 78%
02:00 +4°C° 0 mm 3 mps 689 mmHg 78%
03:00 +4°C° 0 mm 3 mps 689 mmHg 79%
04:00 +5°C° 0 mm 2 mps 689 mmHg 76%
05:00 +6°C° 0 mm 2 mps 689 mmHg 72%
06:00 +6°C° 0 mm 2 mps 689 mmHg 69%
07:00 +9°C° 0 mm 2 mps 689 mmHg 60%
08:00 +12°C° 0 mm 2 mps 689 mmHg 50%
09:00 +13°C° 0 mm 3 mps 689 mmHg 40%
10:00 +14°C° 0 mm 3 mps 689 mmHg 38%
11:00 +15°C° 0 mm 4 mps 689 mmHg 36%
12:00 +17°C° 0 mm 5 mps 689 mmHg 34%
13:00 +17°C° 0 mm 5 mps 688 mmHg 35%
14:00 +17°C° 0 mm 5 mps 688 mmHg 37%
15:00 +17°C° 0 mm 6 mps 687 mmHg 39%
16:00 +16°C° 0 mm 5 mps 687 mmHg 45%
17:00 +14°C° 0 mm 4 mps 687 mmHg 52%
18:00 +13°C° 0 mm 4 mps 687 mmHg 59%
19:00 +12°C° 0.1 mm 3 mps 687 mmHg 66%
20:00 +11°C° 0.1 mm 3 mps 687 mmHg 73%
21:00 +10°C° 0.1 mm 2 mps 687 mmHg 80%
22:00 +10°C° 0.1 mm 2 mps 687 mmHg 80%
23:00 +9°C° 0.1 mm 2 mps 687 mmHg 79%

14 May, Friday

Time Temperature Precipitation Wind Pressure Humidity
00:00 +9°C° 0.1 mm 2 mps 686 mmHg 79%
01:00 +9°C° 0 mm 2 mps 686 mmHg 81%
02:00 +8°C° 0 mm 3 mps 686 mmHg 83%
03:00 +7°C° 0 mm 3 mps 686 mmHg 85%
04:00 +7°C° 0 mm 3 mps 686 mmHg 82%
05:00 +8°C° 0 mm 3 mps 686 mmHg 80%
06:00 +8°C° 0 mm 3 mps 687 mmHg 77%
07:00 +10°C° 0 mm 3 mps 687 mmHg 66%
08:00 +12°C° 0 mm 3 mps 688 mmHg 55%
09:00 +13°C° 0 mm 4 mps 688 mmHg 44%
10:00 +15°C° 0 mm 4 mps 688 mmHg 38%
11:00 +17°C° 0 mm 4 mps 689 mmHg 32%
12:00 +17°C° 0 mm 5 mps 689 mmHg 26%
13:00 +17°C° 0 mm 5 mps 689 mmHg 26%
14:00 +19°C° 0 mm 5 mps 689 mmHg 25%
15:00 +19°C° 0 mm 6 mps 689 mmHg 25%
16:00 +17°C° 0 mm 6 mps 689 mmHg 30%
17:00 +15°C° 0 mm 6 mps 689 mmHg 34%
18:00 +14°C° 0 mm 6 mps 689 mmHg 39%
19:00 +12°C° 0 mm 5 mps 689 mmHg 45%
20:00 +10°C° 0 mm 4 mps 690 mmHg 50%
21:00 +8°C° 0 mm 3 mps 690 mmHg 56%
22:00 +8°C° 0 mm 2 mps 690 mmHg 55%
23:00 +7°C° 0 mm 2 mps 690 mmHg 53%

15 May, Saturday

Time Temperature Precipitation Wind Pressure Humidity
00:00 +7°C° 0 mm 2 mps 690 mmHg 51%
01:00 +7°C° 0 mm 2 mps 690 mmHg 50%
02:00 +8°C° 0 mm 1 mps 690 mmHg 49%
03:00 +7°C° 0 mm 1 mps 690 mmHg 49%
04:00 +8°C° 0 mm 1 mps 690 mmHg 49%
05:00 +9°C° 0 mm 1 mps 690 mmHg 49%
06:00 +9°C° 0 mm 0 mps 690 mmHg 49%
07:00 +10°C° 0 mm 0 mps 690 mmHg 48%
08:00 +11°C° 0 mm 0 mps 691 mmHg 46%
09:00 +12°C° 0 mm 0 mps 691 mmHg 45%
10:00 +15°C° 0 mm 1 mps 691 mmHg 43%
11:00 +18°C° 0 mm 1 mps 691 mmHg 41%
12:00 +19°C° 0 mm 2 mps 691 mmHg 39%
13:00 +20°C° 0 mm 2 mps 691 mmHg 40%
14:00 +21°C° 0 mm 3 mps 691 mmHg 40%
15:00 +21°C° 0 mm 3 mps 690 mmHg 40%
16:00 +21°C° 0 mm 3 mps 690 mmHg 45%
17:00 +20°C° 0 mm 2 mps 690 mmHg 49%
18:00 +19°C° 0 mm 2 mps 690 mmHg 54%
19:00 +18°C° 0 mm 2 mps 690 mmHg 57%
20:00 +17°C° 0 mm 2 mps 690 mmHg 61%
21:00 +16°C° 0 mm 2 mps 690 mmHg 64%
22:00 +16°C° 0 mm 2 mps 690 mmHg 67%
23:00 +15°C° 0 mm 1 mps 690 mmHg 70%

16 May, Sunday

Time Temperature Precipitation Wind Pressure Humidity
00:00 +15°C° 0 mm 1 mps 690 mmHg 73%
01:00 +14°C° 0 mm 1 mps 690 mmHg 75%
02:00 +13°C° 0 mm 1 mps 690 mmHg 77%
03:00 +13°C° 0 mm 1 mps 690 mmHg 80%
04:00 +13°C° 0 mm 1 mps 690 mmHg 78%
05:00 +14°C° 0 mm 1 mps 690 mmHg 76%
06:00 +15°C° 0 mm 1 mps 690 mmHg 74%
07:00 +18°C° 0 mm 1 mps 690 mmHg 66%
08:00 +19°C° 0 mm 2 mps 691 mmHg 59%
09:00 +21°C° 0 mm 3 mps 691 mmHg 52%
10:00 +22°C° 0 mm 3 mps 691 mmHg 47%
11:00 +23°C° 0 mm 4 mps 691 mmHg 43%
12:00 +26°C° 0 mm 5 mps 691 mmHg 39%
13:00 +26°C° 0 mm 5 mps 691 mmHg 38%
14:00 +26°C° 0 mm 5 mps 690 mmHg 38%
15:00 +26°C° 0 mm 5 mps 690 mmHg 37%
16:00 +25°C° 0 mm 4 mps 690 mmHg 42%
17:00 +24°C° 0 mm 3 mps 689 mmHg 46%
18:00 +23°C° 0 mm 2 mps 689 mmHg 51%
19:00 +20°C° 0 mm 2 mps 689 mmHg 56%
20:00 +19°C° 0 mm 2 mps 689 mmHg 62%
21:00 +17°C° 0 mm 2 mps 689 mmHg 67%
22:00 +16°C° 0 mm 2 mps 689 mmHg 71%
23:00 +15°C° 0 mm 2 mps 689 mmHg 76%
Show more

We Need Your Consent

Meteoprog and our Service Providers may store and access personal data such as cookies, device identifiers or other similar technologies on your device and process such data to personalise content and ads, as well as provide social media features and to analyse the traffic.

  • Store and/or access information on your device

    Cookies, device identifiers or other information can be stored or accessed on your device for the purposes indicated above.

  • Personalised ads and content, ad and content measurement, audience insights, and products development

    Ads and content can be personalised based on a profile. More data can be added to better personalise ads and content. Ad and content performance can be measured. Insights about the audience who saw the ads and content can be derived. Such data can be used to develop or improve user’s experience, systems and software.

By clicking ‘I Agree’ you will allow the use of indicated cookies, device identifiers, web beacons or other similar technologies. Your settings can be changed in the browser on your device.

For certain purposes, legitimate interests may be relied on, rather than consent. You can read more about this in our Privacy and Cookie Policy.